Weather History for KATS - September, 2013

Change the Weather History Date:

Thursday, September 5, 2013

  Actual Average Record
Temperature  
Mean Temperature 76 °F -  
Max Temperature 91 °F 88 °F 106 °F (1948)
Min Temperature 62 °F 58 °F 44 °F (1984)
Cooling Degree Days 12    
Growing Degree Days 26 (Base 50)    
Moisture  
Dew Point 42 °F    
Average Humidity 29    
Maximum Humidity 45    
Minimum Humidity 16    
Precipitation  
Precipitation 0.00 in - - ()
Sea Level Pressure  
Sea Level Pressure 30.18 in    
Wind  
Wind Speed 5 mph (SSE)    
Max Wind Speed 16 mph    
Max Gust Speed 30 mph    
Visibility 10 miles    
Events      
Averages and records for this station are not official NWS values.
T = Trace of Precipitation, MM = Missing Value Source: NWS Daily Summary

Daily Weather History Graph

Daily Weather History Graph

Search for Another Location

Airport or City:

Trip Planner

Search our weather history database for the weather conditions in past years. The results will help you decide how hot, cold, wet, or windy it might be!

Date:

Astronomy

Sep. 05, 2013 Rise Set
Actual Time 6:35 AM MDT 7:17 PM MDT
Civil Twilight 6:10 AM MDT 7:42 PM MDT
Nautical Twilight 5:40 AM MDT 8:11 PM MDT
Astronomical Twilight 5:10 AM MDT 8:41 PM MDT
Moon 6:45 AM MDT (9/5) 7:15 PM MDT (9/5)
Length of Visible Light 13h 31m
Length of Day
12h 41m
New Moon, 0% of the Moon is Illuminated
Sep 5
New Moon
Sep 12
First Quarter
Sep 19
Full
Sep 26
Last Quarter
Oct 4
New

Hourly Weather History & Observations

Time (MDT) Temp. Heat Index Dew Point Humidity Pressure Visibility Wind Dir Wind Speed Gust Speed Precip Events Conditions
12:15 AM 71.6 °F - 41.0 °F 33% 30.19 in 10.0 mi South 6.9 mph - N/A   Clear
12:35 AM 71.6 °F - 41.0 °F 33% 30.19 in 10.0 mi South 5.8 mph - N/A   Clear
12:55 AM 71.6 °F - 41.0 °F 33% 30.19 in 10.0 mi South 8.1 mph - N/A   Clear
1:15 AM 71.6 °F - 41.0 °F 33% 30.18 in 10.0 mi South 6.9 mph - N/A   Clear
1:35 AM 71.6 °F - 41.0 °F 33% 30.18 in 10.0 mi SSW 3.5 mph - N/A   Clear
1:55 AM 69.8 °F - 41.0 °F 35% 30.18 in 10.0 mi SSW 3.5 mph - N/A   Clear
2:15 AM 69.8 °F - 41.0 °F 35% 30.18 in 10.0 mi South 4.6 mph - N/A   Clear
2:35 AM 69.8 °F - 41.0 °F 35% 30.18 in 10.0 mi South 3.5 mph - N/A   Clear
2:55 AM 68.0 °F - 41.0 °F 37% 30.18 in 10.0 mi SSW 5.8 mph - N/A   Clear
3:15 AM 66.2 °F - 41.0 °F 40% 30.18 in 10.0 mi WSW 4.6 mph - N/A   Clear
3:35 AM 66.2 °F - 41.0 °F 40% 30.18 in 10.0 mi NW 4.6 mph - N/A   Clear
3:55 AM 66.2 °F - 41.0 °F 40% 30.18 in 10.0 mi WNW 3.5 mph - N/A   Clear
4:15 AM 64.4 °F - 41.0 °F 42% 30.18 in 10.0 mi NW 4.6 mph - N/A   Clear
4:35 AM 64.4 °F - 41.0 °F 42% 30.18 in 10.0 mi Calm Calm - N/A   Clear
4:55 AM 66.2 °F - 41.0 °F 40% 30.18 in 10.0 mi Calm Calm - N/A   Clear
5:15 AM 64.4 °F - 41.0 °F 42% 30.18 in 10.0 mi Calm Calm - N/A   Clear
5:35 AM 64.4 °F - 39.2 °F 40% 30.19 in 10.0 mi West 3.5 mph - N/A   Clear
5:55 AM 62.6 °F - 41.0 °F 45% 30.20 in 10.0 mi West 4.6 mph - N/A   Clear
6:15 AM 62.6 °F - 41.0 °F 45% 30.20 in 10.0 mi West 6.9 mph - N/A   Clear
6:35 AM 64.4 °F - 41.0 °F 42% 30.20 in 10.0 mi WNW 4.6 mph - N/A   Clear
6:55 AM 62.6 °F - 39.2 °F 42% 30.21 in 10.0 mi NW 6.9 mph - N/A   Clear
7:15 AM 64.4 °F - 41.0 °F 42% 30.21 in 10.0 mi WNW 5.8 mph - N/A   Clear
7:35 AM 66.2 °F - 41.0 °F 40% 30.22 in 10.0 mi Calm Calm - N/A   Clear
7:55 AM 68.0 °F - 41.0 °F 37% 30.22 in 10.0 mi WNW 4.6 mph - N/A   Clear
8:15 AM 71.6 °F - 44.6 °F 38% 30.23 in 10.0 mi Calm Calm - N/A   Clear
8:35 AM 73.4 °F - 48.2 °F 41% 30.23 in 10.0 mi Calm Calm - N/A   Clear
8:55 AM 75.2 °F - 48.2 °F 38% 30.23 in 10.0 mi Calm Calm - N/A   Clear
9:15 AM 75.2 °F - 50.0 °F 41% 30.23 in 10.0 mi Calm Calm - N/A   Clear
9:35 AM 77.0 °F - 51.8 °F 41% 30.24 in 10.0 mi South 4.6 mph - N/A   Clear
9:55 AM 80.6 °F 80.3 °F 53.6 °F 39% 30.24 in 10.0 mi ESE 3.5 mph - N/A   Clear
10:15 AM 80.6 °F 80.3 °F 53.6 °F 39% 30.24 in 10.0 mi SSW 5.8 mph - N/A   Clear
10:35 AM 84.2 °F 82.8 °F 53.6 °F 35% 30.24 in 10.0 mi SSE 9.2 mph - N/A   Clear
10:55 AM 84.2 °F - 51.8 °F 33% 30.23 in 10.0 mi SSW 8.1 mph - N/A   Clear
11:15 AM 86.0 °F - 48.2 °F 27% 30.23 in 10.0 mi SSW 8.1 mph - N/A   Clear
11:35 AM 87.8 °F - 46.4 °F 24% 30.22 in 10.0 mi ESE 10.4 mph 16.1 mph N/A   Clear
11:55 AM 87.8 °F - 44.6 °F 22% 30.22 in 10.0 mi East 8.1 mph - N/A   Clear
12:15 PM 87.8 °F - 42.8 °F 21% 30.21 in 10.0 mi SE 9.2 mph 18.4 mph N/A   Clear
12:35 PM 89.6 °F - 44.6 °F 21% 30.21 in 10.0 mi ESE 8.1 mph - N/A   Clear
12:55 PM 89.6 °F - 44.6 °F 21% 30.20 in 10.0 mi ESE 6.9 mph - N/A   Clear
1:15 PM 89.6 °F - 42.8 °F 20% 30.20 in 10.0 mi SE 10.4 mph 19.6 mph N/A   Clear
1:35 PM 89.6 °F - 44.6 °F 21% 30.19 in 10.0 mi ESE 13.8 mph 17.3 mph N/A   Clear
1:55 PM 91.4 °F - 44.6 °F 20% 30.18 in 10.0 mi SSE 10.4 mph - N/A   Clear
2:15 PM 91.4 °F - 44.6 °F 20% 30.17 in 10.0 mi NW 3.5 mph 16.1 mph N/A   Clear
2:35 PM 91.4 °F - 46.4 °F 21% 30.17 in 10.0 mi SE 8.1 mph - N/A   Clear
2:55 PM 91.4 °F - 44.6 °F 20% 30.16 in 10.0 mi SSE 16.1 mph 29.9 mph N/A   Partly Cloudy
3:15 PM 91.4 °F - 42.8 °F 18% 30.15 in 10.0 mi Calm Calm - N/A   Clear
3:35 PM 91.4 °F - 44.6 °F 20% 30.14 in 10.0 mi NE 4.6 mph - N/A   Clear
3:55 PM 91.4 °F - 46.4 °F 21% 30.14 in 10.0 mi SSE 10.4 mph - N/A   Clear
4:15 PM 91.4 °F - 44.6 °F 20% 30.14 in 10.0 mi Calm Calm - N/A   Clear
4:35 PM 91.4 °F - 44.6 °F 20% 30.13 in 10.0 mi West 4.6 mph - N/A   Clear
4:55 PM 91.4 °F - 41.0 °F 17% 30.13 in 10.0 mi SSE 6.9 mph - N/A   Clear
5:15 PM 91.4 °F - 39.2 °F 16% 30.13 in 10.0 mi SE 8.1 mph - N/A   Clear
5:35 PM 91.4 °F - 39.2 °F 16% 30.13 in 10.0 mi SE 9.2 mph - N/A   Clear
5:55 PM 91.4 °F - 39.2 °F 16% 30.12 in 10.0 mi SSE 5.8 mph - N/A   Clear
6:15 PM 91.4 °F - 41.0 °F 17% 30.12 in 10.0 mi ESE 6.9 mph - N/A   Clear
6:35 PM 89.6 °F - 41.0 °F 18% 30.12 in 10.0 mi SE 6.9 mph - N/A   Clear
6:55 PM 89.6 °F - 39.2 °F 17% 30.12 in 10.0 mi SE 6.9 mph - N/A   Clear
7:15 PM 86.0 °F - 39.2 °F 19% 30.12 in 10.0 mi SE 6.9 mph - N/A   Clear
7:35 PM 86.0 °F - 39.2 °F 19% 30.12 in 10.0 mi SE 5.8 mph - N/A   Clear
7:55 PM 86.0 °F - 41.0 °F 20% 30.13 in 10.0 mi SE 5.8 mph - N/A   Clear
8:15 PM 80.6 °F - 39.2 °F 23% 30.14 in 10.0 mi South 5.8 mph - N/A   Clear
8:35 PM 78.8 °F - 39.2 °F 24% 30.15 in 10.0 mi South 6.9 mph - N/A   Clear
8:55 PM 80.6 °F - 37.4 °F 21% 30.16 in 10.0 mi South 6.9 mph - N/A   Clear
9:15 PM 78.8 °F - 37.4 °F 23% 30.16 in 10.0 mi SE 6.9 mph - N/A   Clear
9:35 PM 77.0 °F - 37.4 °F 24% 30.17 in 10.0 mi SSE 4.6 mph - N/A   Clear
9:55 PM 77.0 °F - 37.4 °F 24% 30.17 in 10.0 mi ESE 6.9 mph - N/A   Clear
10:15 PM 77.0 °F - 37.4 °F 24% 30.17 in 10.0 mi SE 4.6 mph - N/A   Clear
10:35 PM 77.0 °F - 39.2 °F 26% 30.18 in 10.0 mi ESE 3.5 mph - N/A   Clear
10:55 PM 77.0 °F - 39.2 °F 26% 30.18 in 10.0 mi East 3.5 mph - N/A   Clear
11:15 PM 77.0 °F - 37.4 °F 24% 30.18 in 10.0 mi East 3.5 mph - N/A   Partly Cloudy
11:35 PM 77.0 °F - 39.2 °F 26% 30.18 in 10.0 mi East 4.6 mph - N/A   Scattered Clouds
11:55 PM 77.0 °F - 39.2 °F 26% 30.18 in 10.0 mi ESE 8.1 mph - N/A   Clear